星链-3210 (STARLINK-3210 )

导读

STARLINK-3210是美国太空探索技术公司SpaceX星链(Starlink)卫星互联网项目的一颗卫星,于北京时间2021年12月2日发射入轨,属于星链星座低轨卫星组网建设的组成部分,旨在为全球提供覆盖广泛、低延迟的宽带互联网服务,部署在近地轨道运行。

基本信息
目录编号:
49755
目录名称:
STARLINK-3210
国际标识:
2021-115AH
轨道中心:
EARTH
卫星名称:
星链-3210
卫星全名:
星链-3210 (STARLINK-3210 )
卫星状态:
在轨 (已飞行1659 天)
发射日期:
2021-12-02 UTC
国别 :
美国 (US)
星等 :
--
轨道信息
数据来源 国际轨道数据 AOE轨道数据
星历时间 2026-06-17T08:41:32+0800
23小时前
查看轨道信息
2026-06-15T00:00:00+0800
3天前
查看轨道信息
半长轴 6917.9km 6917.91km
偏心率 0.0001453 0.000153
轨道倾角 53.159° 53.159°
近地点辐角 88.838° 75.357°
升交点赤经 63.124° 73.743°
平近点角 271.278° 46.911°
近地点 538.757km 538.714km
远地点 540.769km 540.832km
周期 95.438分钟 95.438分钟
每日圈数 15.088339 15.088306
详细信息
固有亮度:
5
最大亮度:
2.5
卫星平台:
Starlink v1.5
覆盖范围:
全球
运营商:
太空探索技术公司
运营商所在国:
美国
制造商(研发单位):
太空探索技术公司
制造商所在国:
美国
使用方式:
暂无
卫星简介
星链(Starlink)计划是由太空探索技术公司(SpaceX)提出的一个巨型低轨卫星互联网星座项目,计划在2019年至2024年间在太空搭建由约1.2万颗卫星组成的“星链”网络,其中1584颗将部署在地球上空550千米处的近地轨道,并从2020年开始工作。该卫星仍在工作。
2D轨道图
3D轨道图
轨道高度分析图
轨道倾角分析图
轨道综合分析图
查看轨道综合分析图